This is the latest recevied weather packets stored in our database for station/object G4KVI. If no packets are shown the sender has not sent any weather packets the latest 10 day(s).
| Time | Temp. | Humidity | Pressure | Rain* | Wind** | Luminosity | Snow |
|---|---|---|---|---|---|---|---|
| 1787827804 | 22.78° C | 75% | 1009.2 hPa | 0 mm | - | 503 W/m² | - |
| 1787827504 | 22.78° C | 75% | 1009.3 hPa | 0 mm | - | 436 W/m² | - |
| 1787827204 | 22.22° C | 77% | 1009.3 hPa | 0 mm | - | 513 W/m² | - |
| 1787826903 | 22.22° C | 77% | 1009.3 hPa | 0 mm | - | 580 W/m² | - |
| 1787826604 | 21.67° C | 80% | 1009.3 hPa | 0 mm | - | 552 W/m² | - |
| 1787826304 | 21.67° C | 81% | 1009.2 hPa | 0 mm | - | 288 W/m² | - |
| 1787826004 | 21.67° C | 80% | 1009.3 hPa | 0 mm | - | 166 W/m² | - |
| 1787825703 | 21.11° C | 81% | 1009.3 hPa | 0 mm | - | 399 W/m² | - |
| 1787825404 | 21.11° C | 81% | 1009.4 hPa | 0 mm | - | 257 W/m² | - |
| 1787825104 | 21.11° C | 82% | 1009.5 hPa | 0 mm | - | 379 W/m² | - |
| 1787824804 | 21.11° C | 82% | 1009.3 hPa | 0 mm | - | 334 W/m² | - |
| 1787824504 | 21.11° C | 83% | 1009.1 hPa | 0 mm | - | 286 W/m² | - |
| 1787824203 | 21.11° C | 83% | 1009.2 hPa | 0 mm | - | 210 W/m² | - |
| 1787823903 | 21.11° C | 84% | 1009.4 hPa | 0 mm | - | 235 W/m² | - |
| 1787823604 | 21.11° C | 84% | 1009 hPa | 0 mm | - | 271 W/m² | - |
| 1787823304 | 21.11° C | 85% | 1009.1 hPa | 0 mm | - | 263 W/m² | - |
| 1787823004 | 21.11° C | 85% | 1009.2 hPa | 0 mm | - | 267 W/m² | - |
| 1787822704 | 21.11° C | 86% | 1009.2 hPa | 0 mm | - | 260 W/m² | - |
| 1787822404 | 20.56° C | 87% | 1009.3 hPa | 0 mm | - | 262 W/m² | - |
| 1787822104 | 20.56° C | 87% | 1009.2 hPa | 0 mm | - | 251 W/m² | - |
| 1787821803 | 20.56° C | 87% | 1009.1 hPa | 0 mm | - | 258 W/m² | - |
| 1787821503 | 20.56° C | 87% | 1008.8 hPa | 0 mm | - | 213 W/m² | - |
| 1787821204 | 20.56° C | 88% | 1009 hPa | 0 mm | - | 219 W/m² | - |
| 1787820904 | 20.56° C | 89% | 1009 hPa | 0 mm | - | 233 W/m² | - |
| 1787820603 | 20.56° C | 88% | 1009.1 hPa | 0 mm | - | 181 W/m² | - |
* Rain latest hour (hover to see other rain measurements)
** Current wind speed in m/s (hover to see current wind gust speed)